| time (UTC) | temp F | wind direction | speed MPH | gust MPH | rain 1hr in | rain 24hr in | rain mn in | humidity % | barometer mb |
| 20260503225600 | 91 | 240 | 11.0 | 25.0 | 0.00 | 0.00 | 0.00 | 100 | 1009.4 |
| 20260503225100 | 91 | 189 | 17.0 | 23.0 | 0.00 | 0.00 | 0.00 | 100 | 1009.4 |
| 20260503224559 | 92 | 205 | 5.0 | 13.0 | 0.00 | 0.00 | 0.00 | 100 | 1009.4 |
| 20260503224059 | 92 | 194 | 4.0 | 24.0 | 0.00 | 0.00 | 0.00 | 100 | 1009.4 |
| 20260503223558 | 91 | 225 | 8.0 | 24.0 | 0.00 | 0.00 | 0.00 | 100 | 1009.4 |
| 20260503223058 | 91 | 199 | 17.0 | 23.0 | 0.00 | 0.00 | 0.00 | 100 | 1009.4 |
| 20260503222557 | 91 | 196 | 15.0 | 22.0 | 0.00 | 0.00 | 0.00 | 100 | 1009.4 |
| 20260503221556 | 92 | 182 | 12.0 | 25.0 | 0.00 | 0.00 | 0.00 | 100 | 1009.4 |
| 20260503221055 | 92 | 196 | 13.0 | 24.0 | 0.00 | 0.00 | 0.00 | 100 | 1009.4 |
| 20260503220554 | 92 | 240 | 6.0 | 22.0 | 0.00 | 0.00 | 0.00 | 100 | 1009.4 |
| 20260503220053 | 90 | 222 | 8.0 | 24.0 | 0.00 | 0.00 | 0.00 | 100 | 1009.4 |
| 20260503215554 | 90 | 213 | 10.0 | 24.0 | 0.00 | 0.00 | 0.00 | 100 | 1009.4 |
| 20260503215053 | 91 | 191 | 14.0 | 23.0 | 0.00 | 0.00 | 0.00 | 100 | 1009.4 |
| 20260503214552 | 91 | 184 | 13.0 | 22.0 | 0.00 | 0.00 | 0.00 | 100 | 1009.4 |
| 20260503214051 | 91 | 172 | 13.0 | 21.0 | 0.00 | 0.00 | 0.00 | 100 | 1009.4 |
| 20260503213551 | 92 | 178 | 12.0 | 19.0 | 0.00 | 0.00 | 0.00 | 100 | 1009.4 |
| 20260503213050 | 91 | 223 | 1.0 | 21.0 | 0.00 | 0.00 | 0.00 | 100 | 1009.4 |
| 20260503212550 | 91 | 219 | 11.0 | 22.0 | 0.00 | 0.00 | 0.00 | 100 | 1009.4 |
| 20260503212049 | 91 | 178 | 15.0 | 22.0 | 0.00 | 0.00 | 0.00 | 100 | 1009.4 |
| 20260503211549 | 91 | 191 | 6.0 | 18.0 | 0.00 | 0.00 | 0.00 | 100 | 1009.4 |
| 20260503211048 | 92 | 243 | 9.0 | 18.0 | 0.00 | 0.00 | 0.00 | 100 | 1009.4 |
| 20260503210547 | 92 | 223 | 11.0 | 19.0 | 0.00 | 0.00 | 0.00 | 100 | 1009.4 |
| 20260503210047 | 92 | 244 | 11.0 | 19.0 | 0.00 | 0.00 | 0.00 | 100 | 1009.4 |
| 20260503205546 | 92 | 262 | 9.0 | 19.0 | 0.00 | 0.00 | 0.00 | 100 | 1009.4 |
| 20260503204545 | 93 | 209 | 9.0 | 15.0 | 0.00 | 0.00 | 0.00 | 100 | 1009.4 |
| 20260503204045 | 91 | 203 | 8.0 | 18.0 | 0.00 | 0.00 | 0.00 | 100 | 1009.4 |
| 20260503203543 | 92 | 208 | 9.0 | 18.0 | 0.00 | 0.00 | 0.00 | 100 | 1009.4 |
| 20260503203043 | 90 | 201 | 11.0 | 18.0 | 0.00 | 0.00 | 0.00 | 100 | 1009.4 |
| 20260503202543 | 90 | 144 | 7.0 | 14.0 | 0.00 | 0.00 | 0.00 | 100 | 1009.4 |
| 20260503202042 | 90 | 225 | 6.0 | 14.0 | 0.00 | 0.00 | 0.00 | 100 | 1009.4 |
| 20260503201541 | 90 | 185 | 10.0 | 20.0 | 0.00 | 0.00 | 0.00 | 100 | 1009.4 |
| 20260503201041 | 90 | 194 | 6.0 | 20.0 | 0.00 | 0.00 | 0.00 | 100 | 1009.4 |
| 20260503200540 | 92 | 137 | 13.0 | 20.0 | 0.00 | 0.00 | 0.00 | 100 | 1009.4 |
| 20260503200039 | 91 | 219 | 6.0 | 17.0 | 0.00 | 0.00 | 0.00 | 100 | 1009.4 |
| 20260503195539 | 90 | 208 | 8.0 | 17.0 | 0.00 | 0.00 | 0.00 | 100 | 1009.4 |
| 20260503195257 | 90 | 225 | 13.0 | 16.0 | 0.00 | 0.00 | 0.00 | 100 | 1009.4 |
| 20260503194538 | 91 | 194 | 7.0 | 21.0 | 0.00 | 0.00 | 0.00 | 100 | 1009.4 |
| 20260503194037 | 91 | 202 | 4.0 | 21.0 | 0.00 | 0.00 | 0.00 | 100 | 1009.4 |
| 20260503193536 | 90 | 163 | 9.0 | 21.0 | 0.00 | 0.00 | 0.00 | 100 | 1009.4 |
| 20260503193036 | 91 | 216 | 7.0 | 19.0 | 0.00 | 0.00 | 0.00 | 100 | 1009.4 |
| 20260503192535 | 90 | 178 | 9.0 | 19.0 | 0.00 | 0.00 | 0.00 | 100 | 1009.4 |
| 20260503192034 | 89 | 187 | 11.0 | 19.0 | 0.00 | 0.00 | 0.00 | 100 | 1009.4 |
| 20260503191534 | 89 | 158 | 13.0 | 19.0 | 0.00 | 0.00 | 0.00 | 100 | 1009.4 |
| 20260503191034 | 89 | 203 | 9.0 | 18.0 | 0.00 | 0.00 | 0.00 | 100 | 1009.4 |
| 20260503190533 | 88 | 195 | 7.0 | 23.0 | 0.00 | 0.00 | 0.00 | 100 | 1009.4 |
| 20260503190032 | 88 | 144 | 10.0 | 23.0 | 0.00 | 0.00 | 0.00 | 100 | 1009.4 |
| 20260503185532 | 88 | 175 | 14.0 | 22.0 | 0.00 | 0.00 | 0.00 | 100 | 1009.4 |
| 20260503185031 | 89 | 170 | 11.0 | 19.0 | 0.00 | 0.00 | 0.00 | 100 | 1009.4 |
| 20260503184530 | 88 | 178 | 8.0 | 19.0 | 0.00 | 0.00 | 0.00 | 100 | 1009.4 |
| 20260503184030 | 88 | 196 | 9.0 | 19.0 | 0.00 | 0.00 | 0.00 | 100 | 1009.4 |
| 20260503183530 | 88 | 181 | 11.0 | 21.0 | 0.00 | 0.00 | 0.00 | 100 | 1009.4 |
| 20260503183029 | 87 | 146 | 11.0 | 21.0 | 0.00 | 0.00 | 0.00 | 100 | 1009.4 |
| 20260503182528 | 87 | 163 | 11.0 | 22.0 | 0.00 | 0.00 | 0.00 | 100 | 1009.4 |
| 20260503182252 | 86 | 163 | 13.0 | 22.0 | 0.00 | 0.00 | 0.00 | 100 | 1009.4 |
| 20260503181754 | 87 | 135 | 15.0 | 21.0 | 0.00 | 0.00 | 0.00 | 100 | 1009.4 |
| 20260503181026 | 86 | 143 | 9.0 | 17.0 | 0.00 | 0.00 | 0.00 | 100 | 1009.4 |
| 20260503180526 | 86 | 167 | 8.0 | 17.0 | 0.00 | 0.00 | 0.00 | 100 | 1009.4 |
| 20260503180025 | 87 | 165 | 6.0 | 15.0 | 0.00 | 0.00 | 0.00 | 100 | 1009.4 |
| 20260503175524 | 86 | 137 | 7.0 | 18.0 | 0.00 | 0.00 | 0.00 | 100 | 1009.4 |
| 20260503175024 | 87 | 153 | 10.0 | 18.0 | 0.00 | 0.00 | 0.00 | 100 | 1009.4 |
| 20260503174523 | 86 | 188 | 9.0 | 18.0 | 0.00 | 0.00 | 0.00 | 100 | 1009.4 |
| 20260503174023 | 85 | 144 | 7.0 | 19.0 | 0.00 | 0.00 | 0.00 | 100 | 1009.4 |
| 20260503173522 | 84 | 198 | 9.0 | 19.0 | 0.00 | 0.00 | 0.00 | 100 | 1009.4 |
| 20260503173021 | 84 | 125 | 10.0 | 19.0 | 0.00 | 0.00 | 0.00 | 100 | 1009.4 |
| 20260503172521 | 83 | 163 | 11.0 | 19.0 | 0.00 | 0.00 | 0.00 | 100 | 1009.4 |
| 20260503172020 | 83 | 140 | 14.0 | 18.0 | 0.00 | 0.00 | 0.00 | 100 | 1009.4 |
| 20260503171520 | 82 | 113 | 11.0 | 18.0 | 0.00 | 0.00 | 0.00 | 100 | 1009.4 |
| 20260503171238 | 82 | 137 | 11.0 | 18.0 | 0.00 | 0.00 | 0.00 | 100 | 1009.4 |
| 20260503170518 | 82 | 120 | 11.0 | 20.0 | 0.00 | 0.00 | 0.00 | 100 | 1009.4 |
| 20260503151005 | 79 | 101 | 11.0 | 19.0 | 0.00 | 0.00 | 0.00 | 100 | 1009.4 |
| 20260503150725 | 79 | 122 | 12.0 | 19.0 | 0.00 | 0.00 | 0.00 | 100 | 1009.4 |
| 20260503130950 | 74 | 80 | 7.0 | 10.0 | 0.00 | 0.00 | 0.00 | 100 | 1009.4 |
| 20260503130450 | 73 | 109 | 6.0 | 8.0 | 0.00 | 0.00 | 0.00 | 100 | 1009.4 |
| 20260503130215 | 73 | 104 | 6.0 | 10.0 | 0.00 | 0.00 | 0.00 | 100 | 1009.4 |
| 20260503110435 | 74 | 84 | 7.0 | 8.0 | 0.00 | 0.00 | 0.00 | 100 | 1009.4 |
| 20260503090341 | 67 | 71 | 1.0 | 2.0 | 0.00 | 0.00 | 0.00 | 100 | 1009.4 |
| 20260503081144 | 68 | 81 | 0.0 | 0.0 | 0.00 | 0.00 | 0.00 | 100 | 1009.4 |
| 20260503080618 | 68 | 81 | 0.0 | 0.0 | 0.00 | 0.00 | 0.00 | 100 | 1009.4 |
| 20260503080331 | 68 | 81 | 0.0 | 2.0 | 0.00 | 0.00 | 0.00 | 100 | 1009.4 |
| 20260503072520 | 70 | 90 | 5.0 | 5.0 | 0.00 | 0.00 | 0.00 | 100 | 1009.4 |
| 20260503072019 | 69 | 71 | 2.0 | 3.0 | 0.00 | 0.00 | 0.00 | 100 | 1009.4 |
| 20260503071519 | 69 | 5 | 0.0 | 1.0 | 0.00 | 0.00 | 0.00 | 100 | 1009.4 |
| 20260503071008 | 70 | 5 | 0.0 | 0.0 | 0.00 | 0.00 | 0.00 | 100 | 1009.4 |
| 20260503070447 | 69 | 5 | 0.0 | 0.0 | 0.00 | 0.00 | 0.00 | 100 | 1009.4 |
| 20260503060246 | 69 | 354 | 3.0 | 6.0 | 0.00 | 0.00 | 0.00 | 100 | 1009.4 |
| 20260503054742 | 68 | 340 | 0.0 | 0.0 | 0.00 | 0.00 | 0.00 | 100 | 1009.4 |
| 20260503054237 | 69 | 340 | 0.0 | 4.0 | 0.00 | 0.00 | 0.00 | 100 | 1009.4 |
| 20260503053735 | 69 | 340 | 0.0 | 4.0 | 0.00 | 0.00 | 0.00 | 100 | 1009.4 |
| 20260503053230 | 69 | 338 | 3.0 | 5.0 | 0.00 | 0.00 | 0.00 | 100 | 1009.4 |
| 20260503052729 | 70 | 340 | 4.0 | 5.0 | 0.00 | 0.00 | 0.00 | 100 | 1009.4 |
| 20260503052454 | 69 | 330 | 4.0 | 5.0 | 0.00 | 0.00 | 0.00 | 100 | 1009.4 |
| 20260503051728 | 68 | 337 | 4.0 | 6.0 | 0.00 | 0.00 | 0.00 | 100 | 1009.4 |
| 20260503051227 | 69 | 358 | 3.0 | 6.0 | 0.00 | 0.00 | 0.00 | 100 | 1009.4 |
| 20260503050726 | 69 | 336 | 4.0 | 5.0 | 0.00 | 0.00 | 0.00 | 100 | 1009.4 |
| 20260503050227 | 69 | 326 | 3.0 | 4.0 | 0.00 | 0.00 | 0.00 | 100 | 1009.4 |
| 20260503045726 | 70 | 334 | 4.0 | 4.0 | 0.00 | 0.00 | 0.00 | 100 | 1009.4 |
| 20260503045225 | 71 | 337 | 0.0 | 0.0 | 0.00 | 0.00 | 0.00 | 100 | 1009.4 |
| 20260503044658 | 71 | 337 | 0.0 | 0.0 | 0.00 | 0.00 | 0.00 | 100 | 1009.4 |
| 20260503044143 | 71 | 337 | 0.0 | 0.0 | 0.00 | 0.00 | 0.00 | 100 | 1009.4 |
| 20260503043643 | 70 | 337 | 0.0 | 4.0 | 0.00 | 0.00 | 0.00 | 100 | 1009.4 |
| 20260503043124 | 70 | 337 | 0.0 | 4.0 | 0.00 | 0.00 | 0.00 | 100 | 1009.4 |
| 20260503042616 | 70 | 333 | 2.0 | 4.0 | 0.00 | 0.00 | 0.00 | 100 | 1009.4 |
| 20260503042341 | 71 | 170 | 0.0 | 0.0 | 0.00 | 0.00 | 0.00 | 100 | 1009.4 |
| 20260503041614 | 71 | 170 | 0.0 | 0.0 | 0.00 | 0.00 | 0.00 | 100 | 1009.4 |
| 20260503041109 | 71 | 170 | 0.0 | 0.0 | 0.00 | 0.00 | 0.00 | 100 | 1009.4 |
| 20260503040550 | 71 | 170 | 0.0 | 0.0 | 0.00 | 0.00 | 0.00 | 100 | 1009.4 |
| 20260503040047 | 71 | 170 | 0.0 | 0.0 | 0.00 | 0.00 | 0.00 | 100 | 1009.4 |
| 20260503035535 | 71 | 170 | 0.0 | 0.0 | 0.00 | 0.00 | 0.00 | 100 | 1009.4 |
| 20260503035020 | 71 | 170 | 0.0 | 0.0 | 0.00 | 0.00 | 0.00 | 100 | 1009.4 |
| 20260503034510 | 71 | 170 | 0.0 | 0.0 | 0.00 | 0.00 | 0.00 | 100 | 1009.4 |
| 20260503033958 | 71 | 170 | 0.0 | 0.0 | 0.00 | 0.00 | 0.00 | 100 | 1009.4 |
| 20260503033433 | 72 | 170 | 0.0 | 0.0 | 0.00 | 0.00 | 0.00 | 100 | 1009.4 |
| 20260503032928 | 72 | 170 | 0.0 | 0.0 | 0.00 | 0.00 | 0.00 | 100 | 1009.4 |
| 20260503032425 | 73 | 170 | 0.0 | 0.0 | 0.00 | 0.00 | 0.00 | 100 | 1009.4 |
| 20260503031911 | 73 | 170 | 0.0 | 0.0 | 0.00 | 0.00 | 0.00 | 100 | 1009.4 |
| 20260503031404 | 74 | 170 | 0.0 | 0.0 | 0.00 | 0.00 | 0.00 | 100 | 1009.4 |
| 20260503030904 | 75 | 170 | 0.0 | 0.0 | 0.00 | 0.00 | 0.00 | 100 | 1009.4 |
| 20260503030359 | 76 | 170 | 0.0 | 0.0 | 0.00 | 0.00 | 0.00 | 100 | 1009.4 |
| 20260503025317 | 78 | 170 | 0.0 | 0.0 | 0.00 | 0.00 | 0.00 | 100 | 1009.4 |
| 20260503024812 | 79 | 170 | 0.0 | 1.0 | 0.00 | 0.00 | 0.00 | 100 | 1009.4 |
| 20260503024306 | 80 | 170 | 0.0 | 1.0 | 0.00 | 0.00 | 0.00 | 100 | 1009.4 |
| 20260503023749 | 80 | 181 | 0.0 | 1.0 | 0.00 | 0.00 | 0.00 | 100 | 1009.4 |
| 20260503023247 | 81 | 181 | 0.0 | 0.0 | 0.00 | 0.00 | 0.00 | 100 | 1009.4 |
| 20260503022734 | 82 | 181 | 0.0 | 0.0 | 0.00 | 0.00 | 0.00 | 100 | 1009.4 |
| 20260503022221 | 83 | 181 | 0.0 | 3.0 | 0.00 | 0.00 | 0.00 | 100 | 1009.4 |
| 20260503021207 | 84 | 192 | 4.0 | 8.0 | 0.00 | 0.00 | 0.00 | 100 | 1009.4 |
| 20260503020707 | 84 | 215 | 6.0 | 8.0 | 0.00 | 0.00 | 0.00 | 100 | 1009.4 |
| 20260503020432 | 83 | 210 | 0.0 | 9.0 | 0.00 | 0.00 | 0.00 | 100 | 1009.4 |
| 20260503015706 | 84 | 225 | 0.0 | 11.0 | 0.00 | 0.00 | 0.00 | 100 | 1009.4 |
| 20260503015156 | 85 | 234 | 5.0 | 11.0 | 0.00 | 0.00 | 0.00 | 100 | 1009.4 |
| 20260503014921 | 85 | 222 | 6.0 | 11.0 | 0.00 | 0.00 | 0.00 | 100 | 1009.4 |
| 20260503014417 | 85 | 232 | 6.0 | 9.0 | 0.00 | 0.00 | 0.00 | 100 | 1009.4 |
| 20260503013655 | 86 | 251 | 6.0 | 11.0 | 0.00 | 0.00 | 0.00 | 100 | 1009.4 |
| 20260503013154 | 85 | 232 | 6.0 | 13.0 | 0.00 | 0.00 | 0.00 | 100 | 1009.4 |
| 20260503012654 | 86 | 208 | 8.0 | 13.0 | 0.00 | 0.00 | 0.00 | 100 | 1009.4 |
| 20260503012152 | 86 | 230 | 6.0 | 11.0 | 0.00 | 0.00 | 0.00 | 100 | 1009.4 |
| 20260503011653 | 86 | 229 | 4.0 | 11.0 | 0.00 | 0.00 | 0.00 | 100 | 1009.4 |
| 20260503011152 | 86 | 216 | 8.0 | 10.0 | 0.00 | 0.00 | 0.00 | 100 | 1009.4 |
| 20260503010651 | 86 | 239 | 4.0 | 11.0 | 0.00 | 0.00 | 0.00 | 100 | 1009.4 |
| 20260503010150 | 87 | 206 | 3.0 | 11.0 | 0.00 | 0.00 | 0.00 | 100 | 1009.4 |
| 20260503005650 | 86 | 223 | 7.0 | 11.0 | 0.00 | 0.00 | 0.00 | 100 | 1009.4 |
| 20260503005149 | 86 | 219 | 3.0 | 11.0 | 0.00 | 0.00 | 0.00 | 100 | 1009.4 |
| 20260503004643 | 86 | 209 | 7.0 | 11.0 | 0.00 | 0.00 | 0.00 | 100 | 1009.4 |
| 20260503003141 | 87 | 178 | 9.0 | 14.0 | 0.00 | 0.00 | 0.00 | 100 | 1009.4 |
| 20260503002640 | 87 | 219 | 5.0 | 13.0 | 0.00 | 0.00 | 0.00 | 100 | 1009.4 |
| 20260503002139 | 87 | 209 | 6.0 | 13.0 | 0.00 | 0.00 | 0.00 | 100 | 1009.4 |
| 20260503001639 | 87 | 240 | 8.0 | 14.0 | 0.00 | 0.00 | 0.00 | 100 | 1009.4 |
| 20260503001138 | 87 | 182 | 9.0 | 15.0 | 0.00 | 0.00 | 0.00 | 100 | 1009.4 |
| 20260503000637 | 87 | 156 | 9.0 | 15.0 | 0.00 | 0.00 | 0.00 | 100 | 1009.4 |
| 20260502235637 | 87 | 209 | 8.0 | 14.0 | 0.00 | 0.00 | 0.00 | 100 | 1009.4 |
| 20260502234635 | 87 | 168 | 9.0 | 18.0 | 0.00 | 0.00 | 0.00 | 100 | 1009.4 |
| 20260502234135 | 86 | 212 | 2.0 | 18.0 | 0.00 | 0.00 | 0.00 | 100 | 1009.4 |
| 20260502233634 | 88 | 267 | 6.0 | 17.0 | 0.00 | 0.00 | 0.00 | 100 | 1009.4 |
| 20260502233133 | 88 | 237 | 4.0 | 12.0 | 0.00 | 0.00 | 0.00 | 100 | 1009.4 |
| 20260502232852 | 90 | 270 | 5.0 | 12.0 | 0.00 | 0.00 | 0.00 | 100 | 1009.4 |
| 20260502232132 | 89 | 123 | 0.0 | 10.0 | 0.00 | 0.00 | 0.00 | 100 | 1009.4 |
| 20260502231849 | 87 | 104 | 7.0 | 10.0 | 0.00 | 0.00 | 0.00 | 100 | 1009.4 |
| 20260502231131 | 91 | 135 | 6.0 | 15.0 | 0.00 | 0.00 | 0.00 | 100 | 1009.4 |
| 20260502230630 | 89 | 275 | 5.0 | 17.0 | 0.00 | 0.00 | 0.00 | 100 | 1009.4 |